Regional Weather Roundup
Issued by NWS

Home | Current Version | Previous Version | Graphics & Text | Print | Product List | Glossary On
Versions: 1 2 3 4 5 6 7 8 9 10 11 12 13 14 15 16 17 18 19 20 21 22 23 24 25 26 27 28 29 30 31 32 33 34 35 36 37 38 39 40 41 42 43
000
ASUS45 KPSR 221610
RWRAZ

ARIZONA REGIONAL HOURLY WEATHER ROUNDUP
NATIONAL WEATHER SERVICE TUCSON AZ
900 AM MST MON MAY 22 2017

NOTE: FAIR INDICATES FEW OR NO CLOUDS BELOW 12,000 FEET WITH NO
SIGNIFICANT WEATHER AND/OR OBSTRUCTIONS TO VISIBILITY.

AZZ001>003-036-221700-
NORTHWEST ARIZONA

CITY           SKY/WX    TMP DP  RH WIND       PRES   REMARKS
BULLHEAD CITY  SUNNY     88  39  18 N28       29.91S
KINGMAN        SUNNY     81  34  18 N13       30.09S
$$

AZZ004>008-015-016-018-221700-
NORTH CENTRAL ARIZONA

CITY           SKY/WX    TMP DP  RH WIND       PRES   REMARKS
GRAND CANYON   SUNNY     64  33  31 NE9       30.30R
WILLIAMS       SUNNY     66  32  28 NE7       30.27S
PRESCOTT       SUNNY     71  32  23 VRB5      30.17S
FLAGSTAFF      SUNNY     61  32  33 NE9G18    30.29R
PAYSON         SUNNY     75  30  19 NE7       30.19R
PAGE           SUNNY     67  39  35 CALM      30.21R
$$

AZZ009>014-017-221700-
NORTHEAST ARIZONA

CITY           SKY/WX    TMP DP  RH WIND       PRES   REMARKS
WINSLOW        SUNNY     67  34  29 CALM      30.21R
SAINT JOHNS    SUNNY     63  26  24 NW3       30.21S
WINDOW ROCK    SUNNY     63  32  31 N12G18    30.25F
SHOW LOW       SUNNY     59  27  29 N5        30.26S
$$

AZZ023-221700-
GREATER PHOENIX AREA

CITY           SKY/WX    TMP DP  RH WIND       PRES   REMARKS
PHOENIX        SUNNY     87  29  12 SE7       29.89S
BUCKEYE        SUNNY     84  41  21 SE3       29.91R
GLENDALE       SUNNY     86  36  16 CALM      29.92R
LUKE AFB       SUNNY     86  33  14 CALM      29.89S
DEER VALLEY    SUNNY     90  28  11 E6        29.91R
SCOTTSDALE     SUNNY     87  31  13 VRB3      29.93R
MESA-FALCON    SUNNY    N/A N/A N/A VRB6      29.92R
MESA-GATEWAY   SUNNY     82  32  16 CALM      29.93R
$$

AZZ027-028-221700-
SOUTHWEST MARICOPA COUNTY AND PINAL COUNTY

CITY           SKY/WX    TMP DP  RH WIND       PRES   REMARKS
CASA GRANDE    SUNNY     83  31  15 S3        29.93S
$$

AZZ503-504-507>509-221700-
SOUTHEAST ARIZONA

CITY           SKY/WX    TMP DP  RH WIND       PRES   REMARKS
TUCSON         SUNNY     83  28  13 CALM      30.01S
DAVIS-MONTHAN  SUNNY     84  27  13 CALM      30.00S
RYAN FIELD     SUNNY     82  28  14 CALM      30.00R
NOGALES        SUNNY     80  26  13 S3        30.07S
SIERRA VISTA   SUNNY     79  18  10 NE5       30.13R
DOUGLAS        SUNNY     80  19  10 NW6       30.09R
SAFFORD        SUNNY     78  21  12 CALM      30.01S
$$

AZZ020-021-025-026-031-221700-
SOUTHWEST ARIZONA

CITY           SKY/WX    TMP DP  RH WIND       PRES   REMARKS
YUMA           MOSUNNY   84  45  25 VRB3      29.86R
$$

CAZ031-033-041-043-047-048-061-221700-
SOUTHERN CALIFORNIA

CITY           SKY/WX    TMP DP  RH WIND       PRES   REMARKS
DOWNTOWN L.A.  CLOUDY    63  58  83 CALM      29.97R HAZE
L.A. AIRPORT   CLOUDY    60  58  92 W6        29.98R FOG
SAN DIEGO      MOSUNNY   64  58  80 NW6       29.99R
BURBANK        SUNNY     70  55  59 SE7       29.96R
ONTARIO        SUNNY     73  54  51 SW3       29.97R
RIVERSIDE      SUNNY     73  52  47 VRB3      29.96R
PALM SPRINGS   SUNNY     93  40  15 CALM      29.87S
EL CENTRO NAS  SUNNY     91  31  11 CALM      29.86R
IMPERIAL       SUNNY     91  43  18 NW5       29.84R
BLYTHE         SUNNY     85  37  18 E6        29.88R
NEEDLES        SUNNY     91  39  16 N20G29    29.92S
$$

NVZ020-UTZ003-221700-
SOUTHERN NEVADA-UTAH

CITY           SKY/WX    TMP DP  RH WIND       PRES   REMARKS
LAS VEGAS      MOSUNNY   82  35  18 NE10      30.07R
SALT LAKE CITY MOSUNNY   64  45  49 CALM      30.27S
$$

NMZ009-TXZ055-221700-
NEW MEXICO-WEST TEXAS

CITY           SKY/WX    TMP DP  RH WIND       PRES   REMARKS
ALBUQUERQUE    MOSUNNY   68  30  24 N9        30.16F
EL PASO        SUNNY     74  49  41 SE5       30.05F
$$


........................KEY........................
SKY/WX - SKY CONDITION/WEATHER
TMP    - TEMPERATURE IN FAHRENHEIT
DP     - DEWPOINT IN FAHRENHEIT
RH     - RELATIVE HUMIDITY IN PERCENT
WIND   - DIRECTION AND SPEED IN MILES PER HOUR (MPH)
VRB    - VARIABLE WIND DIRECTION
PRES   - MEAN SEA LEVEL PRESSURE IN INCHES OF MERCURY
         F - FALLING PRESSURE   R - RISING PRESSURE
         S - STEADY PRESSURE
VSB    - VISIBILITY IN MILES
HX     - HEAT INDEX IN FAHRENHEIT
WCI    - WIND CHILL INDEX IN FAHRENHEIT
TC     - TEMPERATURE IN CELSIUS WHICH IS ALSO KNOWN AS
         TEMPERATURE IN CENTIGRADE
AFB    - AIR FORCE BASE
         LUKE AFB IS LUKE AIR FORCE BASE
         DAVIS-MONTHAN IS DAVIS-MONTHAN AIR FORCE BASE
NAS    - NAVAL AIR STATION
         EL CENTRO NAS IS EL CENTRO NAVAL AIR STATION
N/A    - NOT AVAILABLE





USA.gov is the U.S. government's official web portal to all federal, state and local government web resources and services.